• In Moldova, Republic
  • List of Countries
  • For 7 days
  • Water Temperature
  • Satellite Maps
  • Weather Map
  • Weather Widgets
  • user-avatar
    Login

    Hourly Weather Eisenstadt

    Today, 19 November, Sunday

    Time Temperature Precipitation Wind Pressure Humidity
    00:00 +2°C° 0 mm 2 mps 722 mmHg 84%
    01:00 +2°C° 0 mm 2 mps 721 mmHg 84%
    02:00 +1°C° 0 mm 2 mps 721 mmHg 84%
    03:00 +1°C° 0 mm 2 mps 721 mmHg 84%
    04:00 +1°C° 0 mm 2 mps 721 mmHg 84%
    05:00 +1°C° 0 mm 2 mps 720 mmHg 83%
    06:00 +1°C° 0 mm 2 mps 720 mmHg 83%
    07:00 +2°C° 0 mm 1 mps 720 mmHg 83%
    08:00 +2°C° 0.1 mm 2 mps 720 mmHg 80%
    09:00 +3°C° 0.1 mm 2 mps 720 mmHg 77%
    10:00 +3°C° 0.1 mm 2 mps 720 mmHg 75%
    11:00 +4°C° 0.2 mm 2 mps 720 mmHg 72%
    12:00 +5°C° 0.2 mm 2 mps 719 mmHg 70%
    13:00 +5°C° 0.2 mm 2 mps 719 mmHg 68%
    14:00 +5°C° 0.1 mm 2 mps 719 mmHg 70%
    15:00 +3°C° 0.1 mm 3 mps 719 mmHg 72%
    16:00 +2°C° 0.1 mm 3 mps 719 mmHg 74%
    17:00 +2°C° 0 mm 3 mps 720 mmHg 75%
    18:00 +1°C° 0 mm 3 mps 720 mmHg 76%
    19:00 0°C° 0 mm 3 mps 720 mmHg 77%
    20:00 0°C° 0 mm 3 mps 721 mmHg 77%
    21:00 0°C° 0 mm 3 mps 721 mmHg 77%
    22:00 0°C° 0 mm 3 mps 721 mmHg 77%
    23:00 -1°C° 0 mm 4 mps 721 mmHg 77%

    Tomorrow, 20 November, Monday

    Time Temperature Precipitation Wind Pressure Humidity
    00:00 -1°C° 0 mm 4 mps 721 mmHg 77%
    01:00 -1°C° 0 mm 4 mps 721 mmHg 77%
    02:00 -1°C° 0 mm 4 mps 722 mmHg 77%
    03:00 -1°C° 0 mm 4 mps 722 mmHg 77%
    04:00 -1°C° 0 mm 4 mps 722 mmHg 76%
    05:00 -1°C° 0 mm 4 mps 722 mmHg 75%
    06:00 -1°C° 0 mm 4 mps 723 mmHg 74%
    07:00 -1°C° 0 mm 5 mps 723 mmHg 73%
    08:00 0°C° 0 mm 5 mps 723 mmHg 69%
    09:00 +2°C° 0 mm 6 mps 724 mmHg 65%
    10:00 +3°C° 0 mm 6 mps 724 mmHg 60%
    11:00 +3°C° 0 mm 6 mps 724 mmHg 58%
    12:00 +4°C° 0 mm 6 mps 724 mmHg 56%
    13:00 +4°C° 0 mm 6 mps 724 mmHg 55%
    14:00 +3°C° 0 mm 5 mps 724 mmHg 58%
    15:00 +4°C° 0 mm 3 mps 724 mmHg 61%
    16:00 +4°C° 0 mm 2 mps 724 mmHg 65%
    17:00 +4°C° 0.1 mm 2 mps 723 mmHg 67%
    18:00 +3°C° 0.1 mm 2 mps 723 mmHg 70%
    19:00 +4°C° 0.1 mm 1 mps 723 mmHg 72%
    20:00 +3°C° 0.3 mm 2 mps 723 mmHg 74%
    21:00 +3°C° 0.3 mm 2 mps 723 mmHg 75%
    22:00 +3°C° 0.3 mm 2 mps 722 mmHg 77%
    23:00 +2°C° 0.2 mm 2 mps 722 mmHg 78%

    Day after tomorrow, 21 November, Tuesday

    Time Temperature Precipitation Wind Pressure Humidity
    00:00 +2°C° 0.2 mm 2 mps 721 mmHg 78%
    01:00 +2°C° 0.2 mm 2 mps 721 mmHg 79%
    02:00 +1°C° 0.1 mm 3 mps 720 mmHg 78%
    03:00 +1°C° 0.1 mm 3 mps 720 mmHg 77%
    04:00 +1°C° 0.1 mm 3 mps 719 mmHg 77%
    05:00 +1°C° 0 mm 4 mps 719 mmHg 76%
    06:00 +1°C° 0 mm 4 mps 719 mmHg 76%
    07:00 +1°C° 0 mm 4 mps 719 mmHg 76%
    08:00 +4°C° 0 mm 4 mps 720 mmHg 74%
    09:00 +5°C° 0 mm 4 mps 720 mmHg 71%
    10:00 +6°C° 0 mm 4 mps 720 mmHg 69%
    11:00 +7°C° 0 mm 4 mps 720 mmHg 67%
    12:00 +8°C° 0 mm 4 mps 720 mmHg 66%
    13:00 +10°C° 0 mm 4 mps 720 mmHg 64%
    14:00 +8°C° 0 mm 4 mps 721 mmHg 68%
    15:00 +8°C° 0 mm 3 mps 721 mmHg 71%
    16:00 +7°C° 0 mm 3 mps 721 mmHg 75%
    17:00 +7°C° 0 mm 3 mps 721 mmHg 76%
    18:00 +7°C° 0 mm 3 mps 721 mmHg 78%
    19:00 +5°C° 0 mm 3 mps 721 mmHg 79%
    20:00 +6°C° 0 mm 2 mps 721 mmHg 79%
    21:00 +7°C° 0 mm 2 mps 721 mmHg 79%
    22:00 +7°C° 0 mm 2 mps 722 mmHg 79%
    23:00 +7°C° 0.2 mm 2 mps 722 mmHg 79%

    22 November, Wednesday

    Time Temperature Precipitation Wind Pressure Humidity
    00:00 +7°C° 0.2 mm 2 mps 722 mmHg 80%
    01:00 +6°C° 0.2 mm 2 mps 722 mmHg 81%
    02:00 +6°C° 0 mm 2 mps 722 mmHg 81%
    03:00 +6°C° 0 mm 2 mps 721 mmHg 80%
    04:00 +5°C° 0 mm 2 mps 721 mmHg 80%
    05:00 +5°C° 0 mm 2 mps 721 mmHg 80%
    06:00 +5°C° 0 mm 2 mps 721 mmHg 80%
    07:00 +6°C° 0 mm 1 mps 722 mmHg 80%
    08:00 +7°C° 0 mm 1 mps 722 mmHg 76%
    09:00 +8°C° 0 mm 1 mps 722 mmHg 72%
    10:00 +10°C° 0 mm 1 mps 723 mmHg 67%
    11:00 +11°C° 0 mm 1 mps 722 mmHg 65%
    12:00 +12°C° 0 mm 1 mps 722 mmHg 62%
    13:00 +13°C° 0 mm 1 mps 722 mmHg 59%
    14:00 +11°C° 0 mm 1 mps 722 mmHg 65%
    15:00 +10°C° 0 mm 1 mps 722 mmHg 70%
    16:00 +9°C° 0 mm 1 mps 722 mmHg 76%
    17:00 +8°C° 0 mm 1 mps 722 mmHg 77%
    18:00 +8°C° 0 mm 1 mps 722 mmHg 79%
    19:00 +7°C° 0 mm 1 mps 722 mmHg 80%
    20:00 +7°C° 0 mm 1 mps 722 mmHg 79%
    21:00 +7°C° 0 mm 1 mps 722 mmHg 78%
    22:00 +7°C° 0 mm 1 mps 723 mmHg 77%
    23:00 +6°C° 0 mm 1 mps 723 mmHg 77%

    23 November, Thursday

    Time Temperature Precipitation Wind Pressure Humidity
    00:00 +6°C° 0 mm 1 mps 722 mmHg 76%
    01:00 +6°C° 0 mm 1 mps 722 mmHg 75%
    02:00 +6°C° 0 mm 1 mps 722 mmHg 76%
    03:00 +6°C° 0 mm 1 mps 722 mmHg 76%
    04:00 +5°C° 0 mm 1 mps 722 mmHg 77%
    05:00 +5°C° 0 mm 1 mps 722 mmHg 77%
    06:00 +5°C° 0 mm 1 mps 723 mmHg 78%
    07:00 +5°C° 0 mm 1 mps 723 mmHg 78%
    08:00 +6°C° 0 mm 1 mps 723 mmHg 74%
    09:00 +8°C° 0 mm 1 mps 724 mmHg 71%
    10:00 +9°C° 0 mm 1 mps 724 mmHg 67%
    11:00 +10°C° 0 mm 1 mps 724 mmHg 64%
    12:00 +11°C° 0 mm 1 mps 724 mmHg 62%
    13:00 +12°C° 0 mm 1 mps 724 mmHg 59%
    14:00 +11°C° 0 mm 1 mps 724 mmHg 65%
    15:00 +9°C° 0 mm 1 mps 724 mmHg 72%
    16:00 +7°C° 0 mm 0 mps 724 mmHg 78%
    17:00 +7°C° 0 mm 0 mps 725 mmHg 79%
    18:00 +7°C° 0 mm 1 mps 725 mmHg 81%
    19:00 +6°C° 0 mm 1 mps 725 mmHg 82%
    20:00 +6°C° 0 mm 1 mps 726 mmHg 82%
    21:00 +6°C° 0 mm 1 mps 726 mmHg 81%
    22:00 +6°C° 0 mm 1 mps 726 mmHg 81%
    23:00 +5°C° 0 mm 1 mps 726 mmHg 80%

    24 November, Friday

    Time Temperature Precipitation Wind Pressure Humidity
    00:00 +5°C° 0 mm 1 mps 726 mmHg 78%
    01:00 +5°C° 0 mm 1 mps 726 mmHg 77%
    02:00 +5°C° 0 mm 1 mps 726 mmHg 76%
    03:00 +5°C° 0 mm 1 mps 726 mmHg 75%
    04:00 +4°C° 0 mm 0 mps 726 mmHg 74%
    05:00 +4°C° 0 mm 0 mps 726 mmHg 74%
    06:00 +3°C° 0 mm 0 mps 727 mmHg 74%
    07:00 +3°C° 0 mm 0 mps 727 mmHg 74%
    08:00 +6°C° 0 mm 1 mps 727 mmHg 71%
    09:00 +7°C° 0 mm 1 mps 727 mmHg 68%
    10:00 +9°C° 0 mm 1 mps 727 mmHg 65%
    11:00 +9°C° 0 mm 1 mps 727 mmHg 63%
    12:00 +10°C° 0 mm 1 mps 727 mmHg 62%
    13:00 +10°C° 0 mm 2 mps 726 mmHg 61%
    14:00 +9°C° 0 mm 2 mps 726 mmHg 67%
    15:00 +8°C° 0 mm 2 mps 726 mmHg 73%
    16:00 +6°C° 0 mm 2 mps 726 mmHg 80%
    17:00 +6°C° 0 mm 2 mps 726 mmHg 82%
    18:00 +6°C° 0 mm 1 mps 726 mmHg 84%
    19:00 +6°C° 0 mm 1 mps 726 mmHg 87%
    20:00 +5°C° 0 mm 1 mps 726 mmHg 87%
    21:00 +5°C° 0 mm 1 mps 726 mmHg 87%
    22:00 +5°C° 0 mm 1 mps 726 mmHg 87%
    23:00 +5°C° 0 mm 1 mps 726 mmHg 86%
    Show more